Time,TemperatureF,DewpointF,PressureIn,WindDirection,WindDirectionDegrees,WindSpeedMPH,WindSpeedGustMPH,Humidity,HourlyPrecipIn,Conditions,Clouds,dailyrainin,SoftwareType,DateUTC
2013-10-20 00:00:00,61.3,59.6,29.79,WSW,247,10.0,10.0,94,0.00,,,0.03,Wunderground v.1.15,2013-10-20 04:00:00,
2013-10-20 00:01:00,61.3,59.6,29.79,WSW,250,9.0,10.0,94,0.00,,,0.00,Wunderground v.1.15,2013-10-20 04:01:00,
2013-10-20 00:02:00,61.2,59.5,29.79,WSW,242,9.0,10.0,94,0.00,,,0.00,Wunderground v.1.15,2013-10-20 04:02:00,
2013-10-20 00:03:00,61.2,59.5,29.79,WSW,240,9.0,14.0,94,0.00,,,0.00,Wunderground v.1.15,2013-10-20 04:03:00,
2013-10-20 00:04:00,61.2,59.5,29.79,West,264,9.0,14.0,94,0.00,,,0.00,Wunderground v.1.15,2013-10-20 04:04:00,
2013-10-20 00:08:00,61.1,59.4,29.80,WSW,257,8.0,14.0,94,0.00,,,0.00,Wunderground v.1.15,2013-10-20 04:08:00,
2013-10-20 00:11:00,60.9,59.2,29.80,WSW,256,9.0,10.0,94,0.00,,,0.00,Wunderground v.1.15,2013-10-20 04:11:00,
2013-10-20 00:17:00,60.6,58.6,29.80,SW,236,10.0,13.0,93,0.00,,,0.00,Wunderground v.1.15,2013-10-20 04:17:00,
2013-10-20 00:23:00,60.1,57.5,29.80,WSW,252,10.0,11.0,91,0.00,,,0.00,Wunderground v.1.15,2013-10-20 04:23:00,
2013-10-20 00:29:00,59.8,56.6,29.79,SW,227,9.0,13.0,89,0.00,,,0.00,Wunderground v.1.15,2013-10-20 04:29:00,
2013-10-20 00:34:00,59.6,55.7,29.80,West,281,9.0,12.0,87,0.00,,,0.00,Wunderground v.1.15,2013-10-20 04:34:00,
2013-10-20 00:40:00,59.4,55.2,29.80,SW,233,8.0,8.0,86,0.00,,,0.00,Wunderground v.1.15,2013-10-20 04:40:00,
2013-10-20 00:45:00,59.3,54.8,29.80,WNW,284,8.0,13.0,85,0.00,,,0.00,Wunderground v.1.15,2013-10-20 04:45:00,
2013-10-20 00:51:00,59.3,54.8,29.79,SW,235,8.0,9.0,85,0.00,,,0.00,Wunderground v.1.15,2013-10-20 04:51:00,
2013-10-20 00:56:00,59.3,54.5,29.79,WSW,249,8.0,14.0,84,0.00,,,0.00,Wunderground v.1.15,2013-10-20 04:56:00,
2013-10-20 01:02:00,59.3,54.1,29.79,WNW,291,9.0,14.0,83,0.00,,,0.00,Wunderground v.1.15,2013-10-20 05:02:00,
2013-10-20 01:07:00,59.1,53.9,29.79,WNW,286,9.0,14.0,83,0.00,,,0.00,Wunderground v.1.15,2013-10-20 05:07:00,
2013-10-20 01:13:00,59.0,53.8,29.80,West,277,9.0,14.0,83,0.00,,,0.00,Wunderground v.1.15,2013-10-20 05:13:00,
2013-10-20 01:19:00,58.9,53.7,29.80,WSW,254,8.0,14.0,83,0.00,,,0.00,Wunderground v.1.15,2013-10-20 05:19:00,
2013-10-20 01:24:00,58.8,54.0,29.80,West,279,7.0,8.0,84,0.00,,,0.00,Wunderground v.1.15,2013-10-20 05:24:00,
2013-10-20 01:30:00,58.7,54.5,29.80,WNW,285,6.0,6.0,86,0.00,,,0.00,Wunderground v.1.15,2013-10-20 05:30:00,
2013-10-20 01:36:00,58.5,54.3,29.80,WNW,284,5.0,8.0,86,0.00,,,0.00,Wunderground v.1.15,2013-10-20 05:36:00,
2013-10-20 01:41:00,58.3,54.4,29.81,WSW,248,4.0,6.0,87,0.00,,,0.00,Wunderground v.1.15,2013-10-20 05:41:00,
2013-10-20 01:47:00,58.1,54.6,29.81,WSW,257,5.0,6.0,88,0.00,,,0.00,Wunderground v.1.15,2013-10-20 05:47:00,
2013-10-20 01:53:00,58.0,54.8,29.81,West,263,5.0,5.0,89,0.00,,,0.00,Wunderground v.1.15,2013-10-20 05:53:00,
2013-10-20 01:58:00,57.9,54.7,29.81,West,267,4.0,5.0,89,0.00,,,0.00,Wunderground v.1.15,2013-10-20 05:58:00,
2013-10-20 02:04:00,57.8,54.9,29.81,West,261,4.0,4.0,90,0.00,,,0.00,Wunderground v.1.15,2013-10-20 06:04:00,
2013-10-20 02:09:00,57.6,54.7,29.81,WSW,257,5.0,14.0,90,0.00,,,0.00,Wunderground v.1.15,2013-10-20 06:09:00,
2013-10-20 02:15:00,57.3,53.8,29.81,West,275,8.0,12.0,88,0.00,,,0.00,Wunderground v.1.15,2013-10-20 06:15:00,
2013-10-20 02:20:00,57.2,53.4,29.81,West,280,8.0,8.0,87,0.00,,,0.00,Wunderground v.1.15,2013-10-20 06:20:00,
2013-10-20 02:26:00,57.1,53.0,29.81,WSW,257,8.0,12.0,86,0.00,,,0.00,Wunderground v.1.15,2013-10-20 06:26:00,
2013-10-20 02:31:00,56.9,52.1,29.81,West,273,8.0,9.0,84,0.00,,,0.00,Wunderground v.1.15,2013-10-20 06:31:00,
2013-10-20 02:37:00,56.8,51.7,29.81,WNW,283,8.0,12.0,83,0.00,,,0.00,Wunderground v.1.15,2013-10-20 06:37:00,
2013-10-20 02:43:00,56.7,51.3,29.81,WSW,242,8.0,8.0,82,0.00,,,0.00,Wunderground v.1.15,2013-10-20 06:43:00,
2013-10-20 02:48:00,56.6,50.8,29.81,West,275,8.0,12.0,81,0.00,,,0.00,Wunderground v.1.15,2013-10-20 06:48:00,
2013-10-20 02:54:00,56.5,50.4,29.82,West,265,9.0,10.0,80,0.00,,,0.00,Wunderground v.1.15,2013-10-20 06:54:00,
2013-10-20 02:59:00,56.3,50.2,29.82,WNW,298,8.0,12.0,80,0.00,,,0.00,Wunderground v.1.15,2013-10-20 06:59:00,
2013-10-20 03:05:00,56.2,49.8,29.82,WSW,256,9.0,12.0,79,0.00,,,0.00,Wunderground v.1.15,2013-10-20 07:05:00,
2013-10-20 03:10:00,56.1,49.7,29.82,West,276,9.0,9.0,79,0.00,,,0.00,Wunderground v.1.15,2013-10-20 07:10:00,
2013-10-20 03:16:00,56.0,49.2,29.82,West,268,9.0,12.0,78,0.00,,,0.00,Wunderground v.1.15,2013-10-20 07:16:00,
2013-10-20 03:22:00,55.8,49.0,29.83,WNW,289,9.0,12.0,78,0.00,,,0.00,Wunderground v.1.15,2013-10-20 07:22:00,
2013-10-20 03:28:00,55.6,48.8,29.83,West,277,9.0,13.0,78,0.00,,,0.00,Wunderground v.1.15,2013-10-20 07:28:00,
2013-10-20 03:34:00,55.5,48.4,29.83,WNW,289,9.0,9.0,77,0.00,,,0.00,Wunderground v.1.15,2013-10-20 07:34:00,
2013-10-20 03:40:00,55.3,48.2,29.83,West,271,8.0,8.0,77,0.00,,,0.00,Wunderground v.1.15,2013-10-20 07:40:00,
2013-10-20 03:45:00,55.1,48.0,29.83,West,280,8.0,9.0,77,0.00,,,0.00,Wunderground v.1.15,2013-10-20 07:45:00,
2013-10-20 03:51:00,54.9,48.2,29.83,West,259,7.0,8.0,78,0.00,,,0.00,Wunderground v.1.15,2013-10-20 07:51:00,
2013-10-20 03:56:00,54.6,47.9,29.83,WNW,285,6.0,8.0,78,0.00,,,0.00,Wunderground v.1.15,2013-10-20 07:56:00,
2013-10-20 04:02:00,54.4,47.3,29.84,WNW,296,8.0,9.0,77,0.00,,,0.00,Wunderground v.1.15,2013-10-20 08:02:00,
2013-10-20 04:08:00,54.1,46.3,29.84,WNW,286,9.0,11.0,75,0.00,,,0.00,Wunderground v.1.15,2013-10-20 08:08:00,
2013-10-20 04:13:00,54.0,46.3,29.84,WNW,284,10.0,18.0,75,0.00,,,0.00,Wunderground v.1.15,2013-10-20 08:13:00,
2013-10-20 04:19:00,53.9,45.8,29.84,West,272,11.0,18.0,74,0.00,,,0.00,Wunderground v.1.15,2013-10-20 08:19:00,
2013-10-20 04:24:00,53.7,45.6,29.84,West,276,10.0,11.0,74,0.00,,,0.00,Wunderground v.1.15,2013-10-20 08:24:00,
2013-10-20 04:30:00,53.4,45.0,29.85,West,271,10.0,16.0,73,0.00,,,0.00,Wunderground v.1.15,2013-10-20 08:30:00,
2013-10-20 04:36:00,53.2,44.8,29.86,NW,310,11.0,16.0,73,0.00,,,0.00,Wunderground v.1.15,2013-10-20 08:36:00,
2013-10-20 04:41:00,53.1,44.7,29.86,West,275,11.0,15.0,73,0.00,,,0.00,Wunderground v.1.15,2013-10-20 08:41:00,
2013-10-20 04:47:00,52.8,44.7,29.86,West,271,9.0,16.0,74,0.00,,,0.00,Wunderground v.1.15,2013-10-20 08:47:00,
2013-10-20 04:52:00,52.6,44.5,29.86,West,278,9.0,15.0,74,0.00,,,0.00,Wunderground v.1.15,2013-10-20 08:52:00,
2013-10-20 04:58:00,52.3,44.3,29.87,WNW,284,10.0,15.0,74,0.00,,,0.00,Wunderground v.1.15,2013-10-20 08:58:00,
2013-10-20 05:03:00,52.2,44.2,29.87,NNW,336,9.0,10.0,74,0.00,,,0.00,Wunderground v.1.15,2013-10-20 09:03:00,
2013-10-20 05:09:00,52.0,44.0,29.87,West,271,8.0,14.0,74,0.00,,,0.00,Wunderground v.1.15,2013-10-20 09:09:00,
2013-10-20 05:15:00,51.8,43.8,29.87,West,262,9.0,13.0,74,0.00,,,0.00,Wunderground v.1.15,2013-10-20 09:15:00,
2013-10-20 05:20:00,51.7,43.7,29.87,West,281,9.0,9.0,74,0.00,,,0.00,Wunderground v.1.15,2013-10-20 09:20:00,
2013-10-20 05:26:00,51.5,43.8,29.88,WNW,301,8.0,9.0,75,0.00,,,0.00,Wunderground v.1.15,2013-10-20 09:26:00,
2013-10-20 05:31:00,51.3,43.6,29.88,West,275,8.0,11.0,75,0.00,,,0.00,Wunderground v.1.15,2013-10-20 09:31:00,
2013-10-20 05:37:00,51.1,43.8,29.88,WNW,290,9.0,11.0,76,0.00,,,0.00,Wunderground v.1.15,2013-10-20 09:37:00,
2013-10-20 05:42:00,51.0,43.7,29.88,WNW,299,8.0,9.0,76,0.00,,,0.00,Wunderground v.1.15,2013-10-20 09:42:00,
2013-10-20 05:48:00,50.8,43.5,29.89,WNW,282,8.0,10.0,76,0.00,,,0.00,Wunderground v.1.15,2013-10-20 09:48:00,
2013-10-20 05:53:00,50.8,43.8,29.89,WNW,293,7.0,8.0,77,0.00,,,0.00,Wunderground v.1.15,2013-10-20 09:53:00,
2013-10-20 05:59:00,50.6,43.7,29.89,WNW,295,6.0,8.0,77,0.00,,,0.00,Wunderground v.1.15,2013-10-20 09:59:00,
2013-10-20 06:04:00,50.5,43.9,29.90,WNW,289,6.0,8.0,78,0.00,,,0.00,Wunderground v.1.15,2013-10-20 10:04:00,
2013-10-20 06:10:00,50.2,43.9,29.90,West,268,5.0,7.0,79,0.00,,,0.00,Wunderground v.1.15,2013-10-20 10:10:00,
2013-10-20 06:15:00,50.1,43.8,29.90,WNW,302,7.0,9.0,79,0.00,,,0.00,Wunderground v.1.15,2013-10-20 10:15:00,
2013-10-20 06:21:00,49.9,43.6,29.90,West,264,7.0,14.0,79,0.00,,,0.00,Wunderground v.1.15,2013-10-20 10:21:00,
2013-10-20 06:27:00,49.7,43.1,29.91,WNW,291,8.0,14.0,78,0.00,,,0.00,Wunderground v.1.15,2013-10-20 10:27:00,
2013-10-20 06:32:00,49.7,43.1,29.91,WSW,246,7.0,10.0,78,0.00,,,0.00,Wunderground v.1.15,2013-10-20 10:32:00,
2013-10-20 06:38:00,49.6,43.0,29.91,WNW,293,8.0,10.0,78,0.00,,,0.00,Wunderground v.1.15,2013-10-20 10:38:00,
2013-10-20 06:43:00,49.5,42.9,29.91,West,265,7.0,10.0,78,0.00,,,0.00,Wunderground v.1.15,2013-10-20 10:43:00,
2013-10-20 06:49:00,49.4,42.5,29.92,WNW,284,7.0,10.0,77,0.00,,,0.00,Wunderground v.1.15,2013-10-20 10:49:00,
2013-10-20 06:54:00,49.3,42.4,29.92,West,271,8.0,11.0,77,0.00,,,0.00,Wunderground v.1.15,2013-10-20 10:54:00,
2013-10-20 07:00:00,49.2,42.3,29.92,NNW,332,8.0,8.0,77,0.00,,,0.00,Wunderground v.1.15,2013-10-20 11:00:00,
2013-10-20 07:05:00,49.1,42.2,29.92,West,279,8.0,10.0,77,0.00,,,0.00,Wunderground v.1.15,2013-10-20 11:05:00,
2013-10-20 07:11:00,49.0,42.1,29.92,NW,306,7.0,7.0,77,0.00,,,0.00,Wunderground v.1.15,2013-10-20 11:11:00,
2013-10-20 07:16:00,48.9,42.3,29.93,WNW,289,6.0,7.0,78,0.00,,,0.00,Wunderground v.1.15,2013-10-20 11:16:00,
2013-10-20 07:22:00,48.7,42.1,29.93,NW,313,5.0,7.0,78,0.00,,,0.00,Wunderground v.1.15,2013-10-20 11:22:00,
2013-10-20 07:27:00,48.7,42.1,29.93,WNW,302,6.0,8.0,78,0.00,,,0.00,Wunderground v.1.15,2013-10-20 11:27:00,
2013-10-20 07:33:00,48.5,42.3,29.93,West,263,5.0,8.0,79,0.00,,,0.00,Wunderground v.1.15,2013-10-20 11:33:00,
2013-10-20 07:39:00,48.4,42.2,29.94,WNW,285,6.0,8.0,79,0.00,,,0.00,Wunderground v.1.15,2013-10-20 11:39:00,
2013-10-20 07:44:00,48.3,42.1,29.94,WNW,283,6.0,8.0,79,0.00,,,0.00,Wunderground v.1.15,2013-10-20 11:44:00,
2013-10-20 07:50:00,48.3,42.1,29.94,West,274,6.0,7.0,79,0.00,,,0.00,Wunderground v.1.15,2013-10-20 11:50:00,
2013-10-20 07:55:00,48.3,42.1,29.95,West,265,6.0,9.0,79,0.00,,,0.00,Wunderground v.1.15,2013-10-20 11:55:00,
2013-10-20 08:01:00,48.3,42.1,29.95,WSW,254,6.0,6.0,79,0.00,,,0.00,Wunderground v.1.15,2013-10-20 12:01:00,
2013-10-20 08:06:00,48.4,42.2,29.95,WSW,255,5.0,8.0,79,0.00,,,0.00,Wunderground v.1.15,2013-10-20 12:06:00,
2013-10-20 08:12:00,48.5,42.3,29.96,West,281,6.0,7.0,79,0.00,,,0.00,Wunderground v.1.15,2013-10-20 12:12:00,
2013-10-20 08:17:00,48.5,42.0,29.96,WNW,298,5.0,7.0,78,0.00,,,0.00,Wunderground v.1.15,2013-10-20 12:17:00,
2013-10-20 08:23:00,48.7,42.1,29.97,West,272,5.0,6.0,78,0.00,,,0.00,Wunderground v.1.15,2013-10-20 12:23:00,
2013-10-20 08:29:00,48.8,42.2,29.97,SSW,202,5.0,7.0,78,0.00,,,0.00,Wunderground v.1.15,2013-10-20 12:29:00,
2013-10-20 08:35:00,49.0,42.1,29.97,WSW,252,5.0,9.0,77,0.00,,,0.00,Wunderground v.1.15,2013-10-20 12:35:00,
2013-10-20 08:41:00,49.4,42.5,29.98,West,259,6.0,6.0,77,0.00,,,0.00,Wunderground v.1.15,2013-10-20 12:41:00,
2013-10-20 08:46:00,50.0,42.7,29.98,WSW,251,5.0,7.0,76,0.00,,,0.00,Wunderground v.1.15,2013-10-20 12:46:00,
2013-10-20 08:52:00,50.4,42.4,29.98,WNW,289,6.0,6.0,74,0.00,,,0.00,Wunderground v.1.15,2013-10-20 12:52:00,
2013-10-20 08:57:00,50.8,42.5,29.98,West,262,6.0,9.0,73,0.00,,,0.00,Wunderground v.1.15,2013-10-20 12:57:00,
2013-10-20 09:03:00,51.3,42.9,29.98,West,274,6.0,7.0,73,0.00,,,0.00,Wunderground v.1.15,2013-10-20 13:03:00,
2013-10-20 09:08:00,51.7,43.0,29.98,NW,320,5.0,7.0,72,0.00,,,0.00,Wunderground v.1.15,2013-10-20 13:08:00,
2013-10-20 09:14:00,52.1,42.6,29.99,WNW,286,5.0,7.0,70,0.00,,,0.00,Wunderground v.1.15,2013-10-20 13:14:00,
2013-10-20 09:19:00,52.2,42.7,29.99,WNW,298,6.0,10.0,70,0.00,,,0.00,Wunderground v.1.15,2013-10-20 13:19:00,
2013-10-20 09:25:00,52.3,42.4,29.99,West,271,7.0,12.0,69,0.00,,,0.00,Wunderground v.1.15,2013-10-20 13:25:00,
2013-10-20 09:31:00,52.2,42.0,29.99,WNW,295,8.0,8.0,68,0.00,,,0.00,Wunderground v.1.15,2013-10-20 13:31:00,
2013-10-20 09:36:00,52.3,42.0,29.99,NW,319,9.0,10.0,68,0.00,,,0.00,Wunderground v.1.15,2013-10-20 13:36:00,
2013-10-20 09:41:00,52.4,42.1,29.99,WNW,303,8.0,8.0,68,0.00,,,0.00,Wunderground v.1.15,2013-10-20 13:41:00,
2013-10-20 09:47:00,52.7,42.0,29.99,WNW,286,7.0,10.0,67,0.00,,,0.00,Wunderground v.1.15,2013-10-20 13:47:00,
2013-10-20 09:53:00,52.8,42.5,29.99,WNW,288,7.0,12.0,68,0.00,,,0.00,Wunderground v.1.15,2013-10-20 13:53:00,
2013-10-20 09:58:00,53.0,42.3,29.99,WNW,294,7.0,12.0,67,0.00,,,0.00,Wunderground v.1.15,2013-10-20 13:58:00,
2013-10-20 10:04:00,53.2,42.1,29.99,WNW,296,8.0,13.0,66,0.00,,,0.00,Wunderground v.1.15,2013-10-20 14:04:00,
2013-10-20 10:09:00,53.3,41.8,30.00,NNW,327,9.0,13.0,65,0.00,,,0.00,Wunderground v.1.15,2013-10-20 14:09:00,
2013-10-20 10:15:00,53.7,42.2,30.00,NNW,331,8.0,13.0,65,0.00,,,0.00,Wunderground v.1.15,2013-10-20 14:15:00,
2013-10-20 10:21:00,54.0,42.1,30.00,NW,311,7.0,8.0,64,0.00,,,0.00,Wunderground v.1.15,2013-10-20 14:21:00,
2013-10-20 10:26:00,54.4,42.1,30.00,West,279,7.0,8.0,63,0.00,,,0.00,Wunderground v.1.15,2013-10-20 14:26:00,
2013-10-20 10:32:00,54.6,42.3,30.00,West,275,7.0,7.0,63,0.00,,,0.00,Wunderground v.1.15,2013-10-20 14:32:00,
2013-10-20 10:37:00,54.8,42.0,30.00,WNW,300,8.0,13.0,62,0.00,,,0.00,Wunderground v.1.15,2013-10-20 14:37:00,
2013-10-20 10:43:00,54.8,42.0,30.00,WNW,289,8.0,11.0,62,0.00,,,0.00,Wunderground v.1.15,2013-10-20 14:43:00,
2013-10-20 10:48:00,54.9,41.7,30.00,West,269,8.0,14.0,61,0.00,,,0.00,Wunderground v.1.15,2013-10-20 14:48:00,
2013-10-20 10:54:00,55.2,42.0,30.00,WNW,284,8.0,13.0,61,0.00,,,0.00,Wunderground v.1.15,2013-10-20 14:54:00,
2013-10-20 11:00:00,55.5,41.4,30.00,WNW,300,8.0,13.0,59,0.00,,,0.00,Wunderground v.1.15,2013-10-20 15:00:00,
2013-10-20 11:05:00,55.8,41.7,30.00,West,278,8.0,13.0,59,0.00,,,0.00,Wunderground v.1.15,2013-10-20 15:05:00,
2013-10-20 11:11:00,56.2,42.1,30.00,WSW,252,7.0,8.0,59,0.00,,,0.00,Wunderground v.1.15,2013-10-20 15:11:00,
2013-10-20 11:16:00,56.7,42.1,30.00,WNW,299,8.0,9.0,58,0.00,,,0.00,Wunderground v.1.15,2013-10-20 15:16:00,
2013-10-20 11:22:00,57.2,42.1,30.00,West,281,8.0,9.0,57,0.00,,,0.00,Wunderground v.1.15,2013-10-20 15:22:00,
2013-10-20 11:28:00,57.7,42.1,30.00,West,271,7.0,10.0,56,0.00,,,0.00,Wunderground v.1.15,2013-10-20 15:28:00,
2013-10-20 11:33:00,58.1,41.5,30.00,NW,307,7.0,8.0,54,0.00,,,0.00,Wunderground v.1.15,2013-10-20 15:33:00,
2013-10-20 11:39:00,58.4,41.8,30.00,West,274,7.0,8.0,54,0.00,,,0.00,Wunderground v.1.15,2013-10-20 15:39:00,
2013-10-20 11:44:00,58.6,41.5,30.00,WNW,297,6.0,8.0,53,0.00,,,0.00,Wunderground v.1.15,2013-10-20 15:44:00,
2013-10-20 11:50:00,59.1,42.0,30.00,NW,315,6.0,6.0,53,0.00,,,0.00,Wunderground v.1.15,2013-10-20 15:50:00,
2013-10-20 11:55:00,59.4,42.7,30.00,WSW,257,7.0,8.0,54,0.00,,,0.00,Wunderground v.1.15,2013-10-20 15:55:00,
2013-10-20 12:01:00,59.8,41.6,30.00,NW,314,6.0,10.0,51,0.00,,,0.00,Wunderground v.1.15,2013-10-20 16:01:00,
2013-10-20 12:07:00,59.8,43.1,30.00,West,267,5.0,10.0,54,0.00,,,0.00,Wunderground v.1.15,2013-10-20 16:07:00,
2013-10-20 12:12:00,60.2,42.5,30.00,West,273,6.0,8.0,52,0.00,,,0.00,Wunderground v.1.15,2013-10-20 16:12:00,
2013-10-20 12:18:00,60.4,42.2,29.99,West,277,8.0,11.0,51,0.00,,,0.00,Wunderground v.1.15,2013-10-20 16:18:00,
2013-10-20 12:23:00,60.6,42.4,29.99,West,260,7.0,10.0,51,0.00,,,0.00,Wunderground v.1.15,2013-10-20 16:23:00,
2013-10-20 12:29:00,60.9,42.6,29.99,West,271,7.0,10.0,51,0.00,,,0.00,Wunderground v.1.15,2013-10-20 16:29:00,
2013-10-20 12:35:00,61.1,42.3,29.99,West,263,8.0,11.0,50,0.00,,,0.00,Wunderground v.1.15,2013-10-20 16:35:00,
2013-10-20 12:36:00,61.1,42.3,29.99,West,263,8.0,11.0,50,0.00,,,0.00,Wunderground v.1.15,2013-10-20 16:36:00,
2013-10-20 12:41:00,61.1,41.2,29.99,SW,225,7.0,7.0,48,0.00,,,0.00,Wunderground v.1.15,2013-10-20 16:41:00,
2013-10-20 12:47:00,61.2,40.8,29.99,WSW,244,7.0,11.0,47,0.00,,,0.00,Wunderground v.1.15,2013-10-20 16:47:00,
2013-10-20 12:52:00,61.3,43.0,29.99,SW,233,6.0,8.0,51,0.00,,,0.00,Wunderground v.1.15,2013-10-20 16:52:00,
2013-10-20 12:58:00,62.0,43.1,29.99,NW,306,6.0,11.0,50,0.00,,,0.00,Wunderground v.1.15,2013-10-20 16:58:00,
2013-10-20 13:03:00,62.0,42.1,29.98,SW,228,6.0,7.0,48,0.00,,,0.00,Wunderground v.1.15,2013-10-20 17:03:00,
2013-10-20 13:09:00,62.1,41.1,29.98,SSW,213,6.0,8.0,46,0.00,,,0.00,Wunderground v.1.15,2013-10-20 17:09:00,
2013-10-20 13:14:00,62.3,41.2,29.98,WNW,288,7.0,11.0,46,0.00,,,0.00,Wunderground v.1.15,2013-10-20 17:14:00,
2013-10-20 13:20:00,62.3,41.2,29.98,West,259,7.0,8.0,46,0.00,,,0.00,Wunderground v.1.15,2013-10-20 17:20:00,
2013-10-20 13:25:00,62.3,40.7,29.98,WSW,252,7.0,11.0,45,0.00,,,0.00,Wunderground v.1.15,2013-10-20 17:25:00,
2013-10-20 13:31:00,62.7,41.6,29.98,WSW,242,8.0,8.0,46,0.00,,,0.00,Wunderground v.1.15,2013-10-20 17:31:00,
2013-10-20 13:37:00,63.0,41.3,29.98,SW,221,6.0,8.0,45,0.00,,,0.00,Wunderground v.1.15,2013-10-20 17:37:00,
2013-10-20 13:42:00,63.2,40.9,29.98,West,267,6.0,6.0,44,0.00,,,0.00,Wunderground v.1.15,2013-10-20 17:42:00,
2013-10-20 13:48:00,63.4,42.2,29.97,WNW,288,6.0,8.0,46,0.00,,,0.00,Wunderground v.1.15,2013-10-20 17:48:00,
2013-10-20 13:53:00,63.6,41.9,29.97,West,265,6.0,7.0,45,0.00,,,0.00,Wunderground v.1.15,2013-10-20 17:53:00,
2013-10-20 13:59:00,63.6,41.3,29.97,WSW,243,6.0,8.0,44,0.00,,,0.00,Wunderground v.1.15,2013-10-20 17:59:00,
2013-10-20 14:04:00,63.7,40.8,29.97,WNW,288,6.0,8.0,43,0.00,,,0.00,Wunderground v.1.15,2013-10-20 18:04:00,
2013-10-20 14:10:00,63.8,40.9,29.98,West,266,6.0,8.0,43,0.00,,,0.00,Wunderground v.1.15,2013-10-20 18:10:00,
2013-10-20 14:15:00,63.7,41.4,29.98,West,275,8.0,12.0,44,0.00,,,0.00,Wunderground v.1.15,2013-10-20 18:15:00,
2013-10-20 14:21:00,63.5,40.6,29.98,NW,315,8.0,11.0,43,0.00,,,0.00,Wunderground v.1.15,2013-10-20 18:21:00,
2013-10-20 14:26:00,63.3,41.6,29.98,WNW,291,7.0,12.0,45,0.00,,,0.00,Wunderground v.1.15,2013-10-20 18:26:00,
2013-10-20 14:32:00,63.6,40.1,29.98,West,272,7.0,9.0,42,0.00,,,0.00,Wunderground v.1.15,2013-10-20 18:32:00,
2013-10-20 14:37:00,63.6,39.5,29.98,West,259,7.0,9.0,41,0.00,,,0.00,Wunderground v.1.15,2013-10-20 18:37:00,
2013-10-20 14:43:00,63.5,39.4,29.98,SSW,205,8.0,12.0,41,0.00,,,0.00,Wunderground v.1.15,2013-10-20 18:43:00,
2013-10-20 14:49:00,63.3,38.6,29.98,SW,229,9.0,14.0,40,0.00,,,0.00,Wunderground v.1.15,2013-10-20 18:49:00,
2013-10-20 14:54:00,63.3,39.8,29.98,WNW,285,10.0,13.0,42,0.00,,,0.00,Wunderground v.1.15,2013-10-20 18:54:00,
2013-10-20 15:00:00,63.2,39.7,29.98,WSW,246,8.0,8.0,42,0.00,,,0.00,Wunderground v.1.15,2013-10-20 19:00:00,
2013-10-20 15:05:00,63.3,39.8,29.97,NW,313,7.0,8.0,42,0.00,,,0.00,Wunderground v.1.15,2013-10-20 19:05:00,
2013-10-20 15:11:00,63.3,39.8,29.98,West,267,6.0,9.0,42,0.00,,,0.00,Wunderground v.1.15,2013-10-20 19:11:00,
2013-10-20 15:16:00,63.3,40.4,29.98,WNW,294,7.0,11.0,43,0.00,,,0.00,Wunderground v.1.15,2013-10-20 19:16:00,
2013-10-20 15:22:00,63.3,41.6,29.98,WSW,244,6.0,10.0,45,0.00,,,0.00,Wunderground v.1.15,2013-10-20 19:22:00,
2013-10-20 15:27:00,63.5,40.6,29.98,WSW,246,6.0,13.0,43,0.00,,,0.00,Wunderground v.1.15,2013-10-20 19:27:00,
2013-10-20 15:33:00,63.6,39.5,29.98,West,260,7.0,11.0,41,0.00,,,0.00,Wunderground v.1.15,2013-10-20 19:33:00,
2013-10-20 15:39:00,63.4,39.9,29.98,WNW,282,8.0,15.0,42,0.00,,,0.00,Wunderground v.1.15,2013-10-20 19:39:00,
2013-10-20 15:44:00,63.2,39.7,29.98,NW,305,8.0,11.0,42,0.00,,,0.00,Wunderground v.1.15,2013-10-20 19:44:00,
2013-10-20 15:50:00,63.0,39.5,29.98,West,273,8.0,13.0,42,0.00,,,0.00,Wunderground v.1.15,2013-10-20 19:50:00,
2013-10-20 15:55:00,62.9,39.4,29.98,NW,325,8.0,13.0,42,0.00,,,0.00,Wunderground v.1.15,2013-10-20 19:55:00,
2013-10-20 16:01:00,62.9,40.0,29.98,WNW,299,7.0,7.0,43,0.00,,,0.00,Wunderground v.1.15,2013-10-20 20:01:00,
2013-10-20 16:07:00,62.9,40.6,29.98,SW,234,6.0,9.0,44,0.00,,,0.00,Wunderground v.1.15,2013-10-20 20:07:00,
2013-10-20 16:12:00,62.9,40.0,29.98,NW,326,6.0,7.0,43,0.00,,,0.00,Wunderground v.1.15,2013-10-20 20:12:00,
2013-10-20 16:18:00,62.9,40.6,29.98,WSW,253,6.0,7.0,44,0.00,,,0.00,Wunderground v.1.15,2013-10-20 20:18:00,
2013-10-20 16:24:00,62.7,39.3,29.98,West,270,6.0,9.0,42,0.00,,,0.00,Wunderground v.1.15,2013-10-20 20:24:00,
2013-10-20 16:29:00,62.5,39.7,29.98,WNW,290,7.0,11.0,43,0.00,,,0.00,Wunderground v.1.15,2013-10-20 20:29:00,
2013-10-20 16:35:00,62.3,39.5,29.98,WSW,248,7.0,8.0,43,0.00,,,0.00,Wunderground v.1.15,2013-10-20 20:35:00,
2013-10-20 16:40:00,62.2,39.4,29.98,West,260,6.0,10.0,43,0.00,,,0.00,Wunderground v.1.15,2013-10-20 20:40:00,
2013-10-20 16:46:00,62.1,39.3,29.99,WNW,292,6.0,10.0,43,0.00,,,0.00,Wunderground v.1.15,2013-10-20 20:46:00,
2013-10-20 16:52:00,61.9,38.5,29.99,WNW,294,6.0,9.0,42,0.00,,,0.00,Wunderground v.1.15,2013-10-20 20:52:00,
2013-10-20 16:58:00,61.7,38.4,29.99,WNW,287,6.0,9.0,42,0.00,,,0.00,Wunderground v.1.15,2013-10-20 20:58:00,
2013-10-20 17:04:00,61.5,38.8,29.99,WNW,301,6.0,9.0,43,0.00,,,0.00,Wunderground v.1.15,2013-10-20 21:04:00,
2013-10-20 17:10:00,61.3,38.6,29.99,WNW,282,6.0,6.0,43,0.00,,,0.00,Wunderground v.1.15,2013-10-20 21:10:00,
2013-10-20 17:16:00,61.2,38.5,29.99,WNW,289,5.0,6.0,43,0.00,,,0.00,Wunderground v.1.15,2013-10-20 21:16:00,
2013-10-20 17:22:00,61.1,38.4,29.99,NW,323,4.0,6.0,43,0.00,,,0.00,Wunderground v.1.15,2013-10-20 21:22:00,
2013-10-20 17:27:00,60.9,39.4,29.99,WNW,292,5.0,6.0,45,0.00,,,0.00,Wunderground v.1.15,2013-10-20 21:27:00,
2013-10-20 17:33:00,60.7,39.8,29.99,WNW,292,4.0,5.0,46,0.00,,,0.00,Wunderground v.1.15,2013-10-20 21:33:00,
2013-10-20 17:38:00,60.5,40.2,30.00,WNW,288,3.0,7.0,47,0.00,,,0.00,Wunderground v.1.15,2013-10-20 21:38:00,
2013-10-20 17:44:00,60.2,39.9,30.00,West,279,4.0,6.0,47,0.00,,,0.00,Wunderground v.1.15,2013-10-20 21:44:00,
2013-10-20 17:49:00,59.9,40.7,30.00,West,268,3.0,6.0,49,0.00,,,0.00,Wunderground v.1.15,2013-10-20 21:49:00,
2013-10-20 17:55:00,59.5,39.8,30.00,West,264,4.0,6.0,48,0.00,,,0.00,Wunderground v.1.15,2013-10-20 21:55:00,
2013-10-20 18:00:00,59.3,40.1,30.00,West,265,3.0,3.0,49,0.00,,,0.00,Wunderground v.1.15,2013-10-20 22:00:00,
2013-10-20 18:06:00,58.9,40.8,30.00,West,273,3.0,3.0,51,0.00,,,0.00,Wunderground v.1.15,2013-10-20 22:06:00,
2013-10-20 18:12:00,58.5,40.4,30.00,WSW,247,3.0,3.0,51,0.00,,,0.00,Wunderground v.1.15,2013-10-20 22:12:00,
2013-10-20 18:17:00,58.1,41.0,30.01,West,261,3.0,4.0,53,0.00,,,0.00,Wunderground v.1.15,2013-10-20 22:17:00,
2013-10-20 18:23:00,57.7,41.2,30.01,West,259,3.0,3.0,54,0.00,,,0.00,Wunderground v.1.15,2013-10-20 22:23:00,
2013-10-20 18:28:00,57.4,41.4,30.01,WSW,247,2.0,4.0,55,0.00,,,0.00,Wunderground v.1.15,2013-10-20 22:28:00,
2013-10-20 18:34:00,57.0,41.4,30.01,WSW,248,2.0,3.0,56,0.00,,,0.00,Wunderground v.1.15,2013-10-20 22:34:00,
2013-10-20 18:39:00,56.8,41.3,30.02,WSW,244,2.0,3.0,56,0.00,,,0.00,Wunderground v.1.15,2013-10-20 22:39:00,
2013-10-20 18:45:00,56.5,41.9,30.02,WSW,248,2.0,2.0,58,0.00,,,0.00,Wunderground v.1.15,2013-10-20 22:45:00,
2013-10-20 18:50:00,56.3,42.1,30.02,WSW,246,2.0,2.0,59,0.00,,,0.00,Wunderground v.1.15,2013-10-20 22:50:00,
2013-10-20 18:56:00,56.1,42.4,30.02,WSW,246,2.0,2.0,60,0.00,,,0.00,Wunderground v.1.15,2013-10-20 22:56:00,
2013-10-20 19:02:00,55.9,42.6,30.03,WSW,246,1.0,1.0,61,0.00,,,0.00,Wunderground v.1.15,2013-10-20 23:02:00,
2013-10-20 19:07:00,55.7,42.9,30.03,WSW,246,1.0,2.0,62,0.00,,,0.00,Wunderground v.1.15,2013-10-20 23:07:00,
2013-10-20 19:13:00,55.4,43.0,30.03,WSW,246,0.0,1.0,63,0.00,,,0.00,Wunderground v.1.15,2013-10-20 23:13:00,
2013-10-20 19:18:00,55.2,43.2,30.03,WSW,246,0.0,2.0,64,0.00,,,0.00,Wunderground v.1.15,2013-10-20 23:18:00,
2013-10-20 19:24:00,54.8,42.9,30.03,WSW,246,1.0,3.0,64,0.00,,,0.00,Wunderground v.1.15,2013-10-20 23:24:00,
2013-10-20 19:29:00,54.6,43.1,30.04,WSW,244,1.0,3.0,65,0.00,,,0.00,Wunderground v.1.15,2013-10-20 23:29:00,
2013-10-20 19:35:00,54.4,43.3,30.04,WSW,240,1.0,2.0,66,0.00,,,0.00,Wunderground v.1.15,2013-10-20 23:35:00,
2013-10-20 19:41:00,54.2,43.5,30.04,SW,225,1.0,3.0,67,0.00,,,0.00,Wunderground v.1.15,2013-10-20 23:41:00,
2013-10-20 19:47:00,54.1,43.4,30.04,SW,221,2.0,3.0,67,0.00,,,0.00,Wunderground v.1.15,2013-10-20 23:47:00,
2013-10-20 19:52:00,54.1,43.8,30.05,SW,222,2.0,2.0,68,0.00,,,0.00,Wunderground v.1.15,2013-10-20 23:52:00,
2013-10-20 19:58:00,54.1,44.2,30.05,SW,233,1.0,2.0,69,0.00,,,0.00,Wunderground v.1.15,2013-10-20 23:58:00,
2013-10-20 20:03:00,54.0,45.2,30.05,SW,233,1.0,2.0,72,0.00,,,0.00,Wunderground v.1.15,2013-10-21 00:03:00,
2013-10-20 20:09:00,53.9,44.7,30.05,SW,233,2.0,3.0,71,0.00,,,0.00,Wunderground v.1.15,2013-10-21 00:09:00,
2013-10-20 20:14:00,53.8,44.6,30.05,WSW,250,2.0,4.0,71,0.00,,,0.00,Wunderground v.1.15,2013-10-21 00:14:00,
2013-10-20 20:20:00,53.6,44.4,30.05,WSW,252,2.0,2.0,71,0.00,,,0.00,Wunderground v.1.15,2013-10-21 00:20:00,
2013-10-20 20:25:00,53.5,44.3,30.05,WSW,238,3.0,4.0,71,0.00,,,0.00,Wunderground v.1.15,2013-10-21 00:25:00,
2013-10-20 20:31:00,53.4,44.2,30.05,WSW,239,3.0,3.0,71,0.00,,,0.00,Wunderground v.1.15,2013-10-21 00:31:00,
2013-10-20 20:36:00,53.3,44.5,30.06,WSW,239,2.0,3.0,72,0.00,,,0.00,Wunderground v.1.15,2013-10-21 00:36:00,
2013-10-20 20:42:00,53.2,44.8,30.06,WSW,239,2.0,3.0,73,0.00,,,0.00,Wunderground v.1.15,2013-10-21 00:42:00,
2013-10-20 20:48:00,53.1,44.7,30.06,WSW,239,2.0,3.0,73,0.00,,,0.00,Wunderground v.1.15,2013-10-21 00:48:00,
2013-10-20 20:53:00,52.9,44.8,30.06,SW,234,1.0,4.0,74,0.00,,,0.00,Wunderground v.1.15,2013-10-21 00:53:00,
2013-10-20 20:59:00,52.8,45.1,30.06,WSW,240,2.0,4.0,75,0.00,,,0.00,Wunderground v.1.15,2013-10-21 00:59:00,
2013-10-20 21:05:00,52.6,44.9,30.06,WSW,242,2.0,3.0,75,0.00,,,0.00,Wunderground v.1.15,2013-10-21 01:05:00,
2013-10-20 21:10:00,52.4,44.7,30.06,SW,219,2.0,2.0,75,0.00,,,0.00,Wunderground v.1.15,2013-10-21 01:10:00,
2013-10-20 21:16:00,52.3,45.0,30.07,SW,221,2.0,2.0,76,0.00,,,0.00,Wunderground v.1.15,2013-10-21 01:16:00,
2013-10-20 21:22:00,52.2,44.9,30.07,SW,222,2.0,2.0,76,0.00,,,0.00,Wunderground v.1.15,2013-10-21 01:22:00,
2013-10-20 21:27:00,52.0,45.0,30.07,SW,222,2.0,3.0,77,0.00,,,0.00,Wunderground v.1.15,2013-10-21 01:27:00,
2013-10-20 21:33:00,51.7,44.7,30.07,SW,227,2.0,3.0,77,0.00,,,0.00,Wunderground v.1.15,2013-10-21 01:33:00,
2013-10-20 21:38:00,51.5,44.5,30.07,WSW,245,2.0,3.0,77,0.00,,,0.00,Wunderground v.1.15,2013-10-21 01:38:00,
2013-10-20 21:44:00,51.4,44.4,30.08,WSW,245,2.0,3.0,77,0.00,,,0.00,Wunderground v.1.15,2013-10-21 01:44:00,
2013-10-20 21:49:00,51.2,44.2,30.07,WSW,245,1.0,3.0,77,0.00,,,0.00,Wunderground v.1.15,2013-10-21 01:49:00,
2013-10-20 21:55:00,51.0,44.4,30.08,WSW,245,1.0,3.0,78,0.00,,,0.00,Wunderground v.1.15,2013-10-21 01:55:00,
2013-10-20 22:01:00,50.7,44.1,30.08,WSW,245,2.0,2.0,78,0.00,,,0.00,Wunderground v.1.15,2013-10-21 02:01:00,
2013-10-20 22:07:00,50.6,43.7,30.08,WSW,245,2.0,2.0,77,0.00,,,0.00,Wunderground v.1.15,2013-10-21 02:07:00,
2013-10-20 22:12:00,50.4,43.5,30.08,WSW,245,1.0,1.0,77,0.00,,,0.00,Wunderground v.1.15,2013-10-21 02:12:00,
2013-10-20 22:18:00,50.3,43.7,30.08,WSW,245,1.0,2.0,78,0.00,,,0.00,Wunderground v.1.15,2013-10-21 02:18:00,
2013-10-20 22:24:00,50.2,43.6,30.08,WSW,245,1.0,2.0,78,0.00,,,0.00,Wunderground v.1.15,2013-10-21 02:24:00,
2013-10-20 22:30:00,50.0,43.7,30.08,WSW,245,1.0,1.0,79,0.00,,,0.00,Wunderground v.1.15,2013-10-21 02:30:00,
2013-10-20 22:36:00,49.8,43.5,30.08,WSW,245,1.0,2.0,79,0.00,,,0.00,Wunderground v.1.15,2013-10-21 02:36:00,
2013-10-20 22:41:00,49.6,43.7,30.08,WSW,245,1.0,1.0,80,0.00,,,0.00,Wunderground v.1.15,2013-10-21 02:41:00,
2013-10-20 22:47:00,49.4,43.5,30.08,WSW,245,0.0,1.0,80,0.00,,,0.00,Wunderground v.1.15,2013-10-21 02:47:00,
2013-10-20 22:52:00,49.2,43.3,30.08,WSW,245,0.0,0.0,80,0.00,,,0.00,Wunderground v.1.15,2013-10-21 02:52:00,
2013-10-20 22:58:00,49.0,43.4,30.08,WSW,245,0.0,0.0,81,0.00,,,0.00,Wunderground v.1.15,2013-10-21 02:58:00,
2013-10-20 23:03:00,48.8,43.2,30.08,WSW,245,0.0,0.0,81,0.00,,,0.00,Wunderground v.1.15,2013-10-21 03:03:00,
2013-10-20 23:09:00,48.6,43.4,30.08,WSW,245,1.0,2.0,82,0.00,,,0.00,Wunderground v.1.15,2013-10-21 03:09:00,
2013-10-20 23:14:00,48.3,43.1,30.08,WSW,245,1.0,2.0,82,0.00,,,0.00,Wunderground v.1.15,2013-10-21 03:14:00,
2013-10-20 23:20:00,48.1,42.9,30.08,WSW,245,0.0,0.0,82,0.00,,,0.00,Wunderground v.1.15,2013-10-21 03:20:00,
2013-10-20 23:25:00,47.9,42.7,30.08,WSW,245,0.0,0.0,82,0.00,,,0.00,Wunderground v.1.15,2013-10-21 03:25:00,
2013-10-20 23:31:00,47.7,42.8,30.08,WSW,245,0.0,0.0,83,0.00,,,0.00,Wunderground v.1.15,2013-10-21 03:31:00,
2013-10-20 23:37:00,47.5,42.6,30.08,WSW,245,1.0,3.0,83,0.00,,,0.00,Wunderground v.1.15,2013-10-21 03:37:00,
2013-10-20 23:42:00,47.3,42.4,30.08,WSW,245,1.0,1.0,83,0.00,,,0.00,Wunderground v.1.15,2013-10-21 03:42:00,
2013-10-20 23:48:00,47.2,42.3,30.08,WSW,245,1.0,2.0,83,0.00,,,0.00,Wunderground v.1.15,2013-10-21 03:48:00,
2013-10-20 23:53:00,47.1,42.5,30.08,WSW,245,1.0,2.0,84,0.00,,,0.00,Wunderground v.1.15,2013-10-21 03:53:00,
2013-10-20 23:59:00,47.0,42.4,30.08,WSW,245,1.0,2.0,84,0.00,,,0.00,Wunderground v.1.15,2013-10-21 03:59:00,